This is the latest recevied weather packets stored in our database for station/object KJ5SC. If no packets are shown the sender has not sent any weather packets the latest 10 day(s).
| Time | Temp. | Humidity | Pressure | Rain* | Wind** | Luminosity | Snow |
|---|---|---|---|---|---|---|---|
| 1787695995 | 36.67° C | 45% | 1016.8 hPa | 0 mm | - | 134 W/m² | - |
| 1787695695 | 36.67° C | 45% | 1016.8 hPa | 0 mm | - | 135 W/m² | - |
| 1787695392 | 36.67° C | 44% | 1016.9 hPa | 0 mm | - | 132 W/m² | - |
| 1787695086 | 36.67° C | 44% | 1016.9 hPa | 0 mm | - | 144 W/m² | - |
| 1787694784 | 36.67° C | 44% | 1016.9 hPa | 0 mm | - | 137 W/m² | - |
| 1787694481 | 36.67° C | 43% | 1016.9 hPa | 0 mm | - | 136 W/m² | - |
| 1787694180 | 36.67° C | 43% | 1017.4 hPa | 0 mm | - | 127 W/m² | - |
| 1787693876 | 37.22° C | 41% | 1017.4 hPa | 0 mm | - | 136 W/m² | - |
| 1787693572 | 37.22° C | 41% | 1017.4 hPa | 0 mm | - | 152 W/m² | - |
| 1787693268 | 36.67° C | 40% | 1017.4 hPa | 0 mm | - | 138 W/m² | - |
| 1787692963 | 36.67° C | 40% | 1017.4 hPa | 0 mm | - | 126 W/m² | - |
| 1787692658 | 37.22° C | 39% | 1017.4 hPa | 0 mm | - | 170 W/m² | - |
| 1787692354 | 37.22° C | 37% | 1017.4 hPa | 0 mm | - | 113 W/m² | - |
| 1787692048 | 36.67° C | 36% | 1017.7 hPa | 0 mm | - | 105 W/m² | - |
| 1787691748 | 36.67° C | 35% | 1017.7 hPa | 0 mm | - | 84 W/m² | - |
| 1787691446 | 36.67° C | 36% | 1017.6 hPa | 0 mm | - | 77 W/m² | - |
| 1787691145 | 36.67° C | 35% | 1017.6 hPa | 0 mm | - | 73 W/m² | - |
| 1787690841 | 36.67° C | 37% | 1017.8 hPa | 0 mm | - | 97 W/m² | - |
| 1787690541 | 36.67° C | 39% | 1017.8 hPa | 0 mm | - | 74 W/m² | - |
| 1787690236 | 36.67° C | 42% | 1017.8 hPa | 0 mm | - | 86 W/m² | - |
| 1787689934 | 37.22° C | 41% | 1017.8 hPa | 0 mm | - | 91 W/m² | - |
| 1787689628 | 36.67° C | 41% | 1017.8 hPa | 0 mm | - | 97 W/m² | - |
| 1787689324 | 36.67° C | 42% | 1018 hPa | 0 mm | - | 97 W/m² | - |
| 1787689023 | 36.67° C | 43% | 1018 hPa | 0 mm | - | 117 W/m² | - |
| 1787688719 | 37.22° C | 43% | 1018 hPa | 0 mm | - | 91 W/m² | - |
* Rain latest hour (hover to see other rain measurements)
** Current wind speed in m/s (hover to see current wind gust speed)